SCP
0 0 0 0 0 0 0 0 0 0 0 0 0 0 0 0 0 0 0 0 0 0 0 0 0 0 1 1 2 2 2 2 2 2 2 2 2 2 2 2 1 1 1
0 0 0 0 0 0 0 0 0 0 0 0 0 0 0 0 0 0 0 0 0 0 0 0 0 0 1 1 2 2 2 2 2 2 2 2 2 2 2 1 1 1 1
0 0 0 0 0 0 0 0 0 0 0 0 0 0 0 0 0 0 0 0 0 0 0 0 0 0 1 2 3 3 3 3 3 2 2 2 2 2 2 1 1 1 1
0 0 0 0 0 0 0 0 0 0 0 0 0 0 0 0 0 0 0 0 0 0 0 0 0 0 1 2 3 4 4 4 4 3 2 2 2 2 2 1 1 1 1
0 0 0 0 0 0 0 0 0 0 0 0 0 0 0 0 0 0 0 0 0 0 0 0 0 0 1 2 2 3 4 5 5 4 4 3 3 2 2 2 1 1 1
0 0 0 0 0 0 0 0 0 0 0 0 0 0 0 0 0 0 0 0 0 -0 0 0 0 0 0 1 1 2 3 4 5 5 5 4 3 3 2 2 2 1 1
0 0 0 0 0 0 0 0 0 0 0 0 0 0 0 0 0 0 0 0 0 0 -0 0 0 0 0 0 0 1 2 3 4 4 5 5 4 3 3 2 2 1 1
0 0 0 0 0 0 0 0 0 0 0 0 0 0 0 0 0 0 0 0 0 0 0 0 0 0 0 0 0 0 0 1 2 3 4 4 4 4 3 3 2 2 2
0 0 0 0 0 0 0 0 0 0 0 0 0 0 0 0 0 0 0 0 0 0 0 0 0 0 0 0 0 0 0 0 1 1 2 3 3 4 4 3 3 2 2
0 0 0 0 0 0 0 0 0 0 0 0 0 0 0 0 0 0 0 0 0 0 0 0 0 0 0 0 0 0 0 0 0 1 1 2 3 3 4 4 3 3 3
0 0 0 0 0 0 0 0 0 0 0 0 0 0 0 0 0 0 0 0 0 0 0 0 0 0 0 0 0 0 0 0 0 0 1 2 3 4 4 4 4 4 4
0 0 0 0 0 0 0 0 0 0 0 0 0 0 0 0 0 0 0 0 0 0 0 0 0 0 0 0 0 0 0 0 0 0 1 2 3 4 4 5 4 4 4
0 0 0 0 0 0 0 0 0 0 0 0 0 0 0 0 0 0 0 0 0 0 0 0 0 0 0 0 0 0 0 0 0 1 2 3 3 4 4 5 4 4 3
0 0 0 0 0 0 0 0 0 0 0 0 0 0 0 0 0 0 0 0 0 0 0 0 0 0 0 0 0 0 0 0 0 0 1 2 3 3 3 3 3 2 2
0 0 0 0 0 0 0 0 0 0 0 0 0 0 0 0 0 0 0 0 0 0 0 0 0 0 0 0 0 0 0 0 0 0 1 1 1 2 2 1 1 1 1
0 0 0 0 0 0 0 0 0 0 0 0 0 0 0 0 0 0 0 0 0 0 0 0 0 0 0 0 0 0 0 0 0 0 0 0 0 1 0 0 0 0 0
0 0 0 0 0 0 0 0 0 0 0 0 0 0 0 0 0 0 0 0 0 0 0 0 0 0 0 0 0 0 0 0 0 0 0 0 0 0 0 0 0 0 0
0 0 0 0 0 0 0 0 0 0 0 0 0 0 0 0 0 0 0 0 0 0 0 0 0 0 0 0 0 0 0 0 0 0 0 0 0 0 0 0 0 0 0
0 0 0 0 0 0 0 0 0 0 0 0 0 0 0 0 0 0 0 0 0 0 0 0 0 0 0 0 0 0 0 0 0 0 0 0 0 0 0 0 0 0 0
0 0 0 0 0 0 0 0 0 0 0 0 0 0 0 0 0 0 0 0 0 0 0 0 0 0 0 0 0 0 0 0 0 0 0 0 0 0 0 0 0 0 0
0 0 0 0 0 0 0 0 0 0 0 0 0 0 0 0 0 0 0 0 0 0 0 0 0 0 0 0 0 0 0 0 0 0 0 0 0 0 0 0 0 0 0
0 0 0 0 0 0 0 0 0 0 0 0 0 0 0 0 0 0 0 0 0 0 0 0 0 0 0 0 0 0 0 0 0 0 0 0 0 0 0 0 0 0 0
0 0 0 0 0 0 0 0 0 0 0 0 0 0 0 0 0 0 0 0 0 0 0 0 0 0 0 0 0 0 0 0 0 0 0 0 0 0 0 0 0 0 0
0 0 0 0 0 0 0 0 0 0 0 0 0 0 0 0 0 0 0 0 0 0 0 0 0 0 0 0 0 0 0 0 0 0 0 0 0 0 0 0 0 0 0
0 0 0 0 0 0 0 0 0 0 0 0 0 0 0 0 0 0 0 0 0 0 0 0 0 0 0 0 0 0 0 0 0 0 0 0 0 0 0 0 0 0 0
0 0 0 0 0 0 0 0 0 0 0 0 0 0 0 0 0 0 0 0 0 0 0 0 0 0 0 0 0 0 0 0 0 0 0 0 0 0 0 0 0 0 0
Wind_Speed
2 2 2 1 1 1 2 2 3 4 4 5 5 5 6 7 6 5 5 13 16 17 18 18 19 19 19 17 15 15 15 16 17 18 17 17 17 18 19 19 20 20 20
1 2 1 1 1 1 1 1 2 2 3 3 4 4 6 6 5 6 6 8 13 15 16 18 19 20 20 20 18 15 15 15 16 17 17 16 17 18 18 19 19 20 20
1 1 1 2 2 2 2 2 2 2 3 3 4 5 4 5 5 5 6 5 6 10 15 16 18 19 19 19 18 17 15 15 16 17 16 16 17 18 19 19 19 19 20
2 1 2 3 3 3 2 3 3 3 3 3 4 5 4 4 5 5 4 4 4 6 9 14 16 17 18 18 19 19 17 16 15 15 16 16 17 18 18 18 18 18 19
3 2 2 3 4 3 3 3 3 3 4 5 5 6 5 5 5 5 5 5 4 5 5 9 14 15 16 17 18 19 20 20 16 13 15 16 16 17 17 17 17 17 18
4 3 2 3 2 2 3 3 4 3 4 5 6 7 6 6 5 5 5 4 4 5 6 6 6 8 14 17 18 18 18 19 19 17 14 13 13 14 15 16 16 16 17
6 5 3 4 3 3 4 4 3 4 3 2 4 6 6 6 6 5 4 4 4 5 4 5 5 6 7 14 15 18 18 18 18 18 18 16 12 11 13 14 15 15 15
4 3 3 3 3 3 5 5 5 4 3 2 2 5 6 4 4 5 3 5 6 3 3 4 6 7 7 7 11 17 18 18 18 17 17 17 15 12 11 12 13 14 14
3 2 3 3 3 3 4 6 5 5 6 4 2 4 5 7 5 4 5 5 4 3 2 4 6 7 9 7 8 11 17 18 19 19 18 17 17 15 13 13 13 13 12
3 3 3 3 2 2 3 4 4 4 5 7 4 5 7 7 8 7 3 3 5 5 4 5 7 9 9 7 9 14 16 17 20 21 21 20 19 18 15 15 14 11 9
4 4 4 3 3 3 4 4 5 5 4 7 7 5 6 6 7 8 12 7 5 5 5 7 7 7 8 8 7 10 15 17 20 21 21 21 20 19 17 13 10 12 15
4 5 5 4 4 4 5 6 6 7 7 9 8 7 7 7 6 7 11 14 10 7 7 7 7 6 6 6 7 11 14 17 20 22 22 22 21 19 14 10 16 19 20
5 6 6 5 5 5 7 7 8 8 8 10 10 8 8 9 7 7 9 13 14 8 6 5 6 6 5 4 4 9 11 16 19 20 21 20 17 13 12 16 21 22 23
6 7 6 7 8 8 10 9 9 10 9 9 11 11 9 9 8 8 8 10 14 10 5 6 4 4 3 2 3 5 6 13 15 16 14 9 6 10 17 22 25 24 23
7 7 8 9 10 10 11 11 9 11 10 11 11 12 11 9 9 9 8 9 10 12 8 6 4 3 3 2 1 2 5 13 16 16 6 6 12 17 21 24 26 26 26
7 9 10 10 11 11 11 11 10 11 12 11 10 12 12 10 8 8 8 8 8 10 9 5 5 3 4 4 5 5 8 16 22 24 19 14 19 23 25 28 29 29 28
9 10 11 12 12 12 12 10 11 12 13 13 12 12 13 11 9 8 8 9 9 9 10 6 4 4 5 6 5 6 7 7 12 26 27 25 23 25 26 28 28 29 28
10 11 11 12 13 12 11 12 13 12 12 13 12 12 14 11 12 10 9 9 9 8 8 9 5 4 4 9 9 8 6 8 10 22 27 27 27 26 26 27 27 26 25
11 11 11 11 11 11 11 11 11 11 11 12 12 13 14 13 14 11 11 10 9 9 8 8 6 3 4 8 10 9 9 8 10 15 23 25 25 24 24 25 27 27 25
11 10 9 9 9 10 10 10 11 11 11 11 11 12 13 13 13 12 11 11 10 9 9 8 7 6 7 8 8 8 7 7 9 10 16 18 21 22 22 23 25 26 26
9 8 8 8 8 8 8 11 11 11 12 11 11 11 12 16 17 13 10 8 10 8 8 8 6 8 10 10 8 7 10 9 10 7 9 10 9 9 10 16 21 24 24
7 7 8 9 10 9 13 17 15 11 11 11 11 12 12 13 16 18 17 15 13 10 7 7 6 11 12 12 10 11 11 9 7 4 8 10 7 9 7 8 18 23 23
7 9 9 10 11 12 17 18 19 12 10 10 11 11 10 11 15 12 13 14 13 14 12 6 9 13 14 15 15 12 8 7 10 8 9 11 7 9 8 13 22 22 23
8 8 9 9 9 12 18 18 18 10 9 10 11 11 12 14 13 14 9 6 6 7 10 9 8 12 15 15 13 14 15 15 13 7 5 11 9 9 10 10 18 20 21
8 8 7 8 9 11 16 19 16 8 9 11 11 12 14 13 18 18 8 2 4 5 7 11 14 18 20 21 19 15 14 14 14 9 4 7 9 10 9 9 12 16 16
6 7 8 8 9 10 15 19 18 7 9 10 10 12 16 17 19 19 10 7 10 10 13 17 20 22 19 17 14 11 12 14 15 9 5 7 9 7 7 6 7 7 9
Wind_Direction
124 115 114 87 44 35 28 0 352 351 350 344 337 336 331 330 330 334 332 344 348 343 337 335 334 332 330 322 308 296 289 270 257 251 248 245 240 237 233 231 234 235 230
141 143 165 191 229 234 249 296 308 319 311 304 302 310 308 311 316 326 327 334 342 342 340 339 335 332 328 326 319 304 292 280 264 252 247 244 238 236 235 231 231 235 235
186 194 230 255 255 261 282 302 313 313 306 299 291 291 286 288 297 307 311 313 322 334 339 338 336 332 327 329 329 322 308 291 275 256 244 241 238 237 236 232 230 232 233
216 240 268 281 309 319 316 316 315 314 298 285 281 277 265 262 271 277 282 294 302 319 329 336 338 334 331 336 338 335 331 315 287 260 244 240 239 239 237 232 230 231 232
354 348 331 328 335 325 313 303 289 264 274 276 272 267 254 246 251 266 261 264 276 301 312 329 340 340 339 340 339 339 339 338 326 286 256 245 241 240 238 233 229 229 230
29 32 349 325 317 298 286 271 262 250 248 268 286 287 277 270 256 251 247 244 263 290 309 323 339 338 337 332 332 333 334 335 339 337 314 272 250 243 237 233 231 228 227
44 44 20 357 346 323 300 294 286 294 282 277 296 300 290 274 270 259 241 245 269 290 308 330 339 336 324 322 322 325 329 329 327 325 322 316 290 258 241 234 232 230 228
49 43 25 356 341 329 326 327 327 306 289 297 291 305 301 296 264 257 250 261 272 278 305 328 324 320 313 305 307 317 322 324 322 318 314 313 310 294 267 248 236 230 227
25 25 12 359 346 344 330 328 324 313 307 304 231 259 290 293 306 263 252 255 262 263 273 299 302 301 299 294 296 305 313 317 318 316 311 304 300 294 280 267 251 232 224
358 1 359 353 338 325 317 313 326 307 302 302 288 241 249 274 291 297 269 246 250 254 257 289 296 295 286 280 281 295 306 313 313 310 305 299 292 287 278 264 253 226 192
334 332 327 316 307 297 292 291 294 288 283 286 285 275 268 264 253 268 287 277 254 246 259 276 283 280 273 270 277 290 306 312 309 305 299 293 286 281 276 257 214 158 144
309 310 307 297 290 285 284 281 273 270 268 270 271 261 255 254 248 249 273 285 282 269 259 264 265 254 250 262 276 298 309 309 306 301 294 286 279 272 258 198 154 142 139
309 305 308 303 297 288 286 281 277 273 265 264 267 267 261 257 250 248 262 282 289 283 257 248 247 233 234 249 274 304 309 311 307 298 287 276 267 248 195 155 137 130 125
299 297 303 298 290 286 289 283 282 276 271 267 273 271 269 263 252 246 250 268 281 282 260 261 237 213 205 233 284 329 325 336 331 315 287 256 213 163 141 129 123 121 120
303 309 304 294 287 283 280 278 276 273 271 269 268 265 264 261 252 248 244 246 261 279 280 259 234 189 175 174 64 30 15 21 18 7 351 112 114 119 120 118 115 113 111
294 297 297 293 291 289 284 278 278 276 274 272 269 267 264 264 258 251 247 247 245 258 269 248 226 167 165 140 96 67 54 47 45 40 38 74 96 102 106 108 107 107 105
293 295 297 297 296 293 289 284 283 284 282 280 277 276 275 272 267 262 257 251 243 240 254 255 218 168 148 134 110 88 72 60 56 58 52 54 73 88 95 98 100 100 100
295 295 296 295 295 295 295 294 293 294 291 289 287 284 280 276 268 262 254 249 246 240 244 255 231 173 141 140 120 100 85 77 71 70 68 60 60 69 78 85 89 90 92
300 299 298 300 305 309 307 306 305 301 294 289 287 283 279 274 267 258 251 247 244 243 233 238 233 159 127 135 119 101 85 78 75 72 73 69 67 67 72 80 85 86 86
305 307 314 319 321 319 320 329 325 315 304 296 292 290 287 280 272 263 253 242 234 233 228 226 217 151 141 133 124 116 101 83 77 72 74 75 74 75 77 82 88 90 89
316 324 328 326 324 323 330 334 329 325 318 310 305 302 300 300 297 286 270 241 226 224 220 213 186 148 147 145 135 125 116 102 80 72 81 72 70 67 69 81 88 93 94
320 327 327 325 323 322 322 328 331 322 319 315 314 313 311 309 312 305 287 266 240 227 221 207 170 159 156 147 136 138 132 123 101 80 91 85 77 80 73 77 93 96 97
323 323 321 324 324 324 329 329 326 324 317 319 321 323 325 322 319 307 289 269 248 235 229 217 171 161 156 153 147 139 123 107 111 120 107 96 87 85 83 88 95 97 99
325 322 328 333 333 336 339 336 336 334 327 332 334 334 334 331 331 326 298 268 234 223 217 209 179 161 152 146 138 130 122 111 104 99 99 104 97 90 89 88 90 94 98
335 338 342 344 343 339 347 355 356 341 339 341 341 343 345 343 342 343 335 353 94 83 93 119 119 121 126 131 133 128 128 122 118 113 91 100 105 98 90 89 85 89 98
346 348 347 348 347 348 354 0 1 349 347 344 343 346 348 352 355 2 11 48 82 86 93 94 98 103 111 120 120 128 135 131 130 123 115 118 124 115 97 76 74 78 91